Location: Castillon
(43.0896°N, 0.2156°E)
Time: 18:06:38
(UTC+00:00)

ALOS 2 - Pass Details

Date: 16 June 2021
Orbit: 630 x 632 km, 97.9° (Epoch: 23 July)

Event Time Altitude Azimuth Distance (km) Brightness Sun altitude
Exits shadow 23:49:15 54° 254° (WSW) 771 2.9 -23.5°
Maximum altitude 23:49:21 54° 260° (W) 769 2.9 -23.5°
Drops below altitude 10° 23:53:40 10° 338° (NNW) 2,023 6.1 -23.5°
Sets 23:55:55 0° 343° (NNW) 2,935 7.3 -23.5°
